Location: Kaarina
(60.4167°N, 22.4167°E)
Time: 23:24:04
(UTC+03:00)

Helios 1A - Pass Details

Date: 24 August 2019
Orbit: 583 x 605 km, 98.2° (Epoch: 09 September)

Event Time Altitude Azimuth Distance (km) Brightness Sun altitude
Exits shadow 22:40:42 12° 108° (ESE) 1,796 4.9 -10.9°
Maximum altitude 22:43:48 26° 54° (NE) 1,176 4.4 -11.1°
Drops below altitude 10° 22:47:19 10° 358° (N) 1,944 6.4 -11.4°
Sets 22:49:45 0° 346° (NNW) 2,855 7.7 -11.6°
